Flag for Madagascar Weather past 2 weeks in Antananarivo, Madagascar

Now
73 °F

Scattered clouds.


Feels Like: 73 °F
Forecast: 62 / 83 °F
Wind: 10 mph from Northeast

Location: Antananarivo / Ivato

Current Time: Oct 23, 2014 at 9:00:50 AM

Latest Report: Oct 23, 2014 at 8:30 AM


Visibility: N/A

Pressure: 30.18 "Hg

Humidity: 83%

Dew point: 68 °F

Location of AntananarivoLocation

Historic Weather in Antananarivo — Graph

°F

Antananarivo temperature yesterday

Maximum temperature yesterday: 90 °F (at 1:00 PM)
Minimum temperature yesterday: 59 °F (at 5:00 AM)
Average temperature yesterday: 74 °F

Past Weeks' High & Low Weather Summary

 TemperatureHumidityPressure
High91 °F (Oct 14, 3:30 PM)100% (Oct 9, 3:30 AM)30.33 "Hg (Oct 9, 3:30 AM)
Low50 °F (Oct 13, 5:00 AM)26% (Oct 8, 3:00 PM)29.98 "Hg (Oct 15, 3:00 PM)
Average72 °F72%30.15 "Hg
* Reported Oct 8 8:00 AM — Oct 23 8:00 AM, Antananarivo, Weather by CustomWeather, © 2014

Note: Actual official high and low records may vary slightly from our data, if they occured in-between our weather recording intervals... More about our weather records

Advertising

Antananarivo weather history for previous 24 hours

 ConditionsComfort  
Time TempWeatherWind HumidityBarometerVisibility
8:00 AM
Oct 23
72 °FScattered clouds.8 mph88%30.18 "HgN/A
7:30 AM70 °FScattered clouds.5 mph94%30.15 "HgN/A
7:00 AM66 °FPassing clouds.5 mph100%30.15 "Hg5 mi
6:30 AM64 °FPassing clouds.5 mph100%30.15 "Hg5 mi
6:00 AM63 °FClear.3 mph100%30.15 "Hg5 mi
5:30 AM61 °FScattered clouds.5 mph100%30.15 "Hg4 mi
5:00 AM61 °FPassing clouds.1 mph100%30.12 "Hg4 mi
4:30 AM61 °FPassing clouds.3 mph100%30.12 "Hg5 mi
4:00 AM63 °FPassing clouds.3 mph100%30.09 "Hg5 mi
3:30 AM63 °FPassing clouds.1 mph100%30.09 "Hg5 mi
3:00 AM63 °FPassing clouds.3 mph100%30.09 "Hg5 mi
2:30 AM63 °FPassing clouds.5 mph100%30.09 "Hg5 mi
2:00 AM63 °FThunderstorms. Partly cloudy.5 mph100%30.09 "Hg2 mi
1:00 AM64 °FThunderstorms. Partly cloudy.No wind100%30.12 "Hg2 mi
12:30 AM64 °FPassing clouds.6 mph100%30.15 "HgN/A
12:00 AM66 °FPassing clouds.6 mph94%30.15 "HgN/A
11:30 PM
Oct 22
68 °FPassing clouds.5 mph83%30.15 "HgN/A
11:00 PM68 °FPassing clouds.3 mph83%30.15 "HgN/A
10:30 PM70 °FPassing clouds.6 mph83%30.15 "HgN/A
10:00 PM72 °FPassing clouds.5 mph78%30.15 "HgN/A
9:30 PM73 °FPassing clouds.6 mph69%30.15 "HgN/A
9:00 PM72 °FThundershowers. Passing clouds.3 mph78%30.12 "HgN/A
8:30 PM72 °FThundershowers. Passing clouds.6 mph83%30.15 "HgN/A
8:00 PM72 °FThundershowers. Passing clouds.7 mph83%30.12 "HgN/A
7:30 PM72 °FThundershowers. Passing clouds.9 mph83%30.12 "HgN/A
7:00 PM73 °FThunderstorms. Passing clouds.7 mph74%30.09 "HgN/A
6:30 PM79 °FPassing clouds.9 mph45%30.09 "HgN/A
5:30 PM82 °FScattered clouds.13 mph37%30.07 "HgN/A
5:00 PM84 °FScattered clouds.12 mph37%30.07 "HgN/A
4:30 PM86 °FScattered clouds.14 mph38%30.04 "HgN/A
4:00 PM86 °FScattered clouds.10 mph38%30.04 "HgN/A
3:30 PM82 °FPartly sunny.8 mph42%30.04 "HgN/A
3:00 PM84 °FPartly sunny.10 mph43%30.04 "HgN/A
2:30 PM86 °FPartly sunny.13 mph43%30.07 "HgN/A
2:00 PM84 °FPartly sunny.9 mph37%30.07 "HgN/A
1:30 PM86 °FPartly sunny.7 mph35%30.07 "HgN/A
1:00 PM90 °FPartly sunny.5 mph31%30.07 "HgN/A
12:30 PM88 °FScattered clouds.8 mph35%30.09 "HgN/A
12:00 PM88 °FScattered clouds.3 mph40%30.09 "HgN/A
11:30 AM88 °FScattered clouds.6 mph49%30.12 "HgN/A
11:00 AM81 °FScattered clouds.3 mph51%30.12 "HgN/A
10:30 AM84 °FScattered clouds.6 mph51%30.15 "HgN/A
10:00 AM81 °FScattered clouds.5 mph54%30.15 "HgN/A
9:30 AM81 °FPassing clouds.5 mph66%30.15 "HgN/A
9:00 AM77 °FPassing clouds.5 mph69%30.18 "HgN/A
Weather by CustomWeather, © 2014

See weather overviewHow to use our weather pages